CAPE
60 5 0 0 3 1 0 1 4 5 1 3 0 3 0 0 0 0 0 0 0 0 0 0 0 0 0 0 0 0 0 0 0 1 7 20 27 35
176 139 52 19 8 6 4 5 8 1 2 1 6 2 0 0 0 0 0 0 0 0 0 0 0 0 0 0 0 0 0 0 0 0 0 0 8 17
386 266 120 101 94 100 90 35 22 25 26 1 0 0 0 10 2 3 0 0 0 0 0 0 0 0 0 0 0 0 0 0 0 0 0 0 0 4
267 335 231 248 265 248 237 129 125 147 19 6 2 13 21 0 4 37 30 13 7 0 0 0 0 0 0 0 0 0 0 0 0 0 0 0 0 0
133 132 210 470 450 327 244 210 248 89 95 4 2 13 15 23 27 1 52 88 12 0 0 0 0 0 0 0 0 0 0 0 0 0 0 0 0 0
243 358 380 247 389 429 231 120 59 100 35 11 8 6 14 4 9 6 9 42 13 5 0 0 0 0 0 0 0 0 0 0 0 0 0 0 0 0
252 252 211 162 134 185 176 213 113 18 18 9 6 3 2 11 4 4 5 3 12 79 24 16 11 2 0 0 0 0 0 0 0 0 0 0 0 0
196 241 258 58 0 0 0 0 0 189 81 45 15 10 9 1 3 1 0 1 1 4 27 95 35 11 20 6 0 0 0 0 0 0 0 0 0 0
15 87 77 111 79 109 53 0 1 1 1 16 25 41 46 33 59 26 16 8 3 4 6 3 11 11 24 8 0 0 0 0 0 0 0 0 0 0
13 21 31 46 0 0 0 1 146 193 40 0 2 3 44 134 130 96 68 45 15 20 22 1 2 4 7 18 0 0 0 0 0 0 0 0 0 0
1 1 0 0 0 0 0 2 3 6 1 0 0 0 0 0 1 1 0 1 1 3 4 21 2 13 10 5 21 0 0 0 0 0 0 0 0 0
4 1 0 0 0 0 1 5 3 3 1 0 0 0 0 1 0 0 1 3 2 0 1 11 12 37 0 33 52 96 188 0 0 0 0 0 0 0
4 2 1 0 0 0 0 0 0 0 2 13 16 13 16 31 25 6 6 13 7 4 14 14 1 0 5 2 2 38 77 52 46 1 0 0 0 1
4 0 0 0 0 0 0 0 0 0 4 6 8 10 11 14 18 18 19 38 28 11 0 6 16 12 9 5 4 6 6 21 25 1 12 0 0 0
0 0 0 0 0 0 0 0 0 6 8 11 13 13 12 14 12 9 8 13 19 27 25 46 37 66 87 39 22 27 11 9 9 0 0 20 0 0
1 1 0 0 0 0 1 1 7 7 8 11 14 10 15 25 17 26 28 23 17 16 13 22 19 14 32 67 39 5 7 0 0 0 0 0 0 0
0 2 1 1 2 3 5 8 11 8 8 12 16 17 13 16 16 26 23 14 16 15 11 11 10 13 18 2 2 2 1 1 0 0 0 0 0 0
0 0 0 2 3 4 8 8 8 4 9 11 11 9 10 14 17 16 18 14 10 11 14 12 5 5 5 3 3 5 5 5 2 1 0 0 1 2
0 0 1 4 6 9 10 9 13 11 12 9 13 11 10 11 7 2 2 2 11 16 20 25 11 5 3 2 6 1 11 14 6 5 5 5 4 4
0 0 0 3 7 8 6 10 7 4 7 8 7 8 15 8 3 6 9 19 27 23 18 15 18 10 7 12 17 10 0 31 18 17 12 14 13 1
0 1 3 6 8 6 5 11 5 7 5 3 7 7 14 9 6 10 13 7 13 21 20 23 12 0 19 29 21 20 14 5 5 18 23 18 16 14
1 1 3 5 7 8 9 11 11 8 7 5 5 3 10 11 11 10 14 28 28 32 34 23 25 23 16 21 19 15 22 18 9 3 2 2 8 5
2 3 7 9 12 14 13 15 7 9 9 9 7 3 3 2 6 3 7 17 20 22 28 19 17 18 21 19 15 16 10 7 6 2 8 2 0 0
CIN
-3 0 -10 0 0 0 0 0 0 0 0 -12 0 0 0 0 0 0 0 0 0 0 0 0 0 0 0 0 0 0 0 0 0 0 0 0 0 0
0 0 -14 -36 -29 -5 -25 0 0 0 0 0 -105 -101 -17 0 0 0 0 0 0 0 0 0 0 0 0 0 0 0 0 0 0 0 0 0 0 0
0 -44 -28 -20 -7 -1 -2 -13 -14 -4 -2 0 0 -8 -15 -57 -59 0 0 0 0 0 0 0 0 0 0 0 0 0 0 0 0 0 0 0 0 0
0 0 -13 -2 0 0 0 -6 -1 -2 -13 0 0 -32 -29 0 -19 -37 -48 0 0 0 0 0 0 0 0 0 0 0 0 0 0 0 0 0 0 0
-2 -3 -13 0 0 -14 -8 -10 -5 -17 -3 -1 0 -28 -4 -23 -14 0 -13 -12 0 0 0 0 0 0 0 0 0 0 0 0 0 0 0 0 0 0
0 0 -2 -19 -5 -14 -14 -17 -33 -5 -17 -13 0 0 -15 0 0 0 0 -17 0 0 0 0 0 0 0 0 0 0 0 0 0 0 0 0 0 0
0 0 -1 -10 -11 -9 -2 -2 -3 -8 -10 -2 0 0 0 0 0 0 0 0 0 -15 -2 -2 -15 0 0 0 0 0 0 0 0 0 0 0 0 0
-4 -2 -1 -18 -1 0 0 0 0 -3 0 0 -1 -2 -8 -25 0 0 0 0 0 0 -20 -4 -12 0 0 0 0 0 0 0 0 0 0 0 0 0
0 -8 -10 -4 -8 -5 -3 0 0 0 0 -1 -1 -1 0 -2 0 -5 -2 -2 0 0 -7 -2 0 -1 -37 -5 0 0 0 0 0 0 0 0 0 0
0 0 -4 0 0 0 0 -12 -1 -2 -1 0 0 0 -3 -4 -6 -1 -19 -28 -2 -2 -7 0 -4 0 -1 0 0 0 0 0 0 0 0 0 0 0
0 0 0 0 0 0 0 0 0 0 0 0 0 0 0 0 0 0 0 0 -1 -1 -3 0 -1 -1 -2 -2 -22 0 0 0 0 0 0 0 0 0
0 0 0 0 0 0 0 0 0 0 0 0 0 0 0 0 0 0 0 0 0 0 0 0 -3 -1 0 0 0 -138 -47 0 0 0 0 0 0 0
0 0 0 0 0 0 0 0 0 0 0 0 0 0 0 0 0 -1 0 -2 -1 0 -1 -1 -3 -4 -1 -2 -7 -3 -79 -127 -60 0 0 0 0 0
0 0 0 0 0 0 0 0 0 0 0 0 0 0 0 0 0 0 0 0 -2 -2 -1 -3 0 0 0 -1 -1 -3 -5 -5 -9 -3 -2 0 0 0
0 0 0 0 0 0 0 0 0 0 0 0 0 0 0 0 0 0 0 0 0 0 0 0 0 0 0 0 -1 0 -4 -4 -20 0 -1 -2 0 0
0 0 0 0 0 0 0 0 0 0 0 0 0 0 0 0 0 0 0 0 0 0 0 0 0 0 0 0 0 0 0 0 0 0 0 0 0 0
0 0 0 0 0 0 0 0 0 0 0 0 0 0 0 0 0 0 0 0 0 0 0 0 0 0 0 0 0 0 0 0 0 0 0 0 0 0
0 0 0 0 0 0 0 0 0 0 0 0 0 0 0 0 0 0 0 0 0 0 0 0 0 0 0 0 0 0 0 0 0 0 0 0 0 0
0 0 0 0 0 0 0 0 0 0 0 0 0 0 0 0 0 0 0 0 0 0 0 0 0 0 0 0 0 0 0 0 0 0 0 0 0 0
0 0 0 0 0 0 0 0 0 0 0 0 0 0 0 0 0 0 0 0 0 0 0 0 0 0 0 0 0 0 0 0 0 0 0 0 0 0
0 0 0 0 0 0 0 0 0 0 0 0 0 0 0 0 0 0 0 -1 0 0 0 0 0 0 0 0 0 0 0 0 0 0 0 0 0 0
0 0 0 0 0 0 0 0 0 0 0 0 0 0 0 0 0 0 0 0 0 0 0 0 0 0 0 0 0 0 0 0 0 0 0 0 0 0
0 0 0 0 0 0 0 0 0 0 0 0 0 0 -3 0 0 0 0 0 0 0 0 0 0 0 0 0 0 0 0 0 0 0 0 0 0 0
Wind_Speed
15 15 14 12 11 11 11 11 10 12 13 11 10 11 9 10 11 11 12 15 18 22 25 25 27 27 28 29 29 29 29 29 28 28 27 26 26 26
12 16 15 14 14 12 12 12 11 12 14 11 11 11 12 11 10 12 16 15 16 17 21 24 26 28 28 28 29 30 30 30 30 29 29 29 28 28
14 15 17 17 13 12 11 12 12 12 13 14 12 13 14 13 13 13 13 15 14 20 20 23 26 28 28 29 28 28 29 31 31 31 31 31 31 31
15 15 18 13 16 15 11 15 14 14 9 19 14 12 13 11 15 14 14 13 13 14 19 23 26 27 28 27 28 30 31 31 31 32 32 32 32 32
14 12 16 17 14 11 12 12 13 12 12 10 14 12 11 12 11 12 13 13 13 16 15 21 25 28 25 26 28 28 30 29 29 29 30 31 31 32
14 13 13 16 14 14 12 12 11 11 10 10 10 12 12 12 9 10 11 11 12 14 15 17 16 20 26 26 28 29 28 28 30 30 30 30 31 31
11 11 11 13 14 13 8 10 10 10 9 9 9 9 9 9 9 9 10 10 13 13 14 13 12 12 14 21 24 27 29 29 30 31 32 31 31 33
7 9 10 11 14 17 16 17 16 14 12 9 10 11 12 9 10 11 11 11 12 10 15 15 12 13 12 13 16 21 24 30 30 31 32 32 33 32
8 10 9 7 8 10 12 16 17 18 20 17 17 15 15 11 12 14 14 14 15 12 13 16 11 15 14 14 18 20 22 24 28 31 31 32 31 32
8 9 9 9 11 10 9 12 15 16 10 9 13 16 17 16 15 15 16 16 15 12 11 15 10 14 13 14 18 20 25 28 30 30 29 30 31 31
5 9 9 9 11 12 9 10 11 11 10 11 10 13 14 16 15 10 12 13 14 13 7 10 12 14 12 14 14 17 23 26 28 28 29 30 29 29
3 5 17 12 11 12 8 8 9 9 14 15 15 15 12 12 13 9 9 11 12 14 9 8 12 10 10 11 14 15 14 22 26 28 30 30 28 13
5 5 6 10 9 8 8 9 8 12 10 10 10 11 12 11 10 10 13 11 11 13 11 7 7 9 11 14 12 12 13 11 12 14 26 27 28 23
6 6 7 9 7 6 9 10 13 8 7 8 8 8 9 10 12 13 17 16 13 16 17 15 11 12 12 14 18 11 11 12 14 16 14 15 26 28
7 6 7 6 7 4 6 8 7 9 9 9 10 10 10 10 12 12 12 16 17 18 15 18 14 14 13 15 16 16 15 10 8 11 11 12 13 8
1 4 5 4 5 7 8 9 9 9 8 9 9 10 10 11 12 13 14 12 11 10 14 16 17 17 14 13 13 14 12 7 6 7 8 7 7 3
6 6 6 7 8 9 10 10 9 9 9 9 9 10 10 10 10 10 11 11 11 11 11 9 14 16 14 6 5 7 8 7 4 1 3 5 7 6
4 6 7 8 9 9 9 9 9 10 9 9 9 8 9 10 11 11 10 10 11 10 11 9 10 11 4 2 12 7 6 6 7 9 8 11 11 10
6 7 7 8 8 8 8 8 8 8 10 9 9 8 9 9 11 12 11 11 10 9 9 11 9 9 7 3 6 22 6 6 8 12 10 12 13 11
7 6 6 6 6 7 7 8 9 8 9 9 9 9 8 9 9 9 9 10 9 7 9 10 10 10 11 8 5 11 24 8 11 12 13 13 13 20
6 6 6 6 6 7 8 8 9 9 9 9 9 9 8 8 9 9 10 11 11 9 10 11 10 13 6 3 8 12 12 30 21 9 7 9 10 10
4 5 5 5 6 7 7 8 8 8 9 9 9 9 8 8 8 9 9 10 9 8 7 7 11 10 11 11 12 15 12 12 19 28 27 18 3 5
5 5 5 6 5 6 7 7 7 8 8 8 9 9 7 8 8 8 7 8 9 9 9 8 8 9 10 10 12 10 16 14 11 13 13 22 23 21
Wind_Direction
229 229 233 242 242 243 245 246 251 266 267 260 255 249 237 249 240 237 233 241 229 225 228 232 242 238 230 231 234 237 239 241 242 243 244 243 244 246
229 232 232 234 239 241 239 246 243 246 264 265 263 263 266 256 245 237 250 244 235 228 226 226 230 235 242 241 235 232 233 237 238 239 240 241 241 241
238 236 237 239 243 243 240 240 245 243 250 264 270 267 263 256 260 256 247 255 256 223 225 227 228 235 234 235 236 239 238 235 234 234 236 237 238 239
235 236 242 241 242 245 249 245 246 246 244 257 262 265 256 259 256 252 261 257 255 247 221 227 233 235 234 233 232 234 234 234 233 231 231 233 235 237
240 237 243 245 246 243 242 243 250 251 248 241 259 269 270 265 267 256 257 261 262 258 241 231 232 237 240 236 239 238 237 236 235 237 234 231 231 234
239 240 248 249 244 241 240 244 247 253 252 245 247 257 268 263 256 258 259 256 262 261 256 254 247 232 237 234 237 238 236 238 235 232 232 230 228 229
242 244 243 248 252 252 252 246 240 247 248 252 254 252 251 258 246 252 255 259 258 267 269 263 253 242 240 235 245 238 239 237 233 232 231 232 234 230
256 256 253 242 246 243 243 246 259 266 260 258 258 256 254 244 250 250 253 255 265 241 260 258 255 254 250 242 237 223 230 231 233 233 235 235 235 234
279 279 280 274 267 276 248 238 248 247 242 258 267 266 268 261 261 256 251 253 255 256 262 266 251 259 251 254 229 226 224 227 231 234 231 232 234 233
271 282 297 309 38 354 323 298 278 276 270 246 249 260 264 267 258 262 260 260 259 258 249 266 255 256 257 251 239 226 223 224 228 232 234 236 233 233
73 50 36 24 0 2 341 320 315 305 311 297 288 289 286 278 268 283 276 275 274 270 241 249 260 264 256 260 261 232 224 224 227 230 231 236 235 234
70 90 59 21 360 10 2 352 331 334 330 310 307 299 282 279 257 243 273 274 277 280 250 241 261 259 269 242 245 249 249 227 226 228 233 234 235 235
27 24 39 0 355 27 8 19 325 309 309 312 330 321 317 316 326 328 325 305 289 269 290 274 273 267 256 279 268 270 269 254 240 231 236 234 230 217
28 16 23 343 348 38 13 348 321 317 343 330 331 333 334 330 325 319 313 305 290 280 290 291 291 288 284 280 279 273 263 262 255 250 243 216 222 223
33 14 331 335 344 54 23 343 347 6 355 348 342 337 327 318 314 310 310 309 308 309 309 309 308 298 280 272 277 279 279 271 266 266 260 248 232 187
103 51 16 354 31 5 4 13 9 3 353 349 335 329 325 324 323 325 319 319 303 303 310 312 313 311 302 296 303 307 319 322 349 318 329 23 358 39
317 32 29 23 20 16 13 3 358 357 355 351 341 335 328 322 320 322 318 319 309 313 313 312 321 318 306 7 322 319 304 293 311 189 89 86 45 20
38 31 29 22 20 13 4 355 354 352 350 343 340 335 331 327 325 325 322 322 316 318 318 331 329 328 293 148 42 338 359 23 24 44 62 79 61 43
44 34 29 19 10 2 353 346 341 342 341 345 342 334 328 329 330 337 337 335 330 325 341 347 340 343 313 24 348 13 34 41 66 64 62 67 74 56
34 29 19 12 5 356 343 343 344 344 348 345 347 348 343 333 339 340 340 341 340 343 359 10 4 8 27 27 32 43 33 62 75 83 83 83 82 81
20 12 9 359 351 343 339 333 332 338 337 340 347 346 346 343 341 344 349 355 354 7 16 21 15 5 31 30 46 43 40 42 44 42 67 77 80 79
0 351 354 346 346 335 332 330 326 339 341 341 343 344 342 344 353 352 355 1 9 11 22 26 30 39 40 44 50 40 33 32 38 45 45 51 13 76
341 336 334 322 320 322 324 322 329 333 339 340 337 338 334 345 352 3 5 6 17 12 15 29 35 41 48 47 52 57 47 42 35 41 45 47 65 81